Find Yaogan 31 hao 04 zu 02 xing

NORAD ID: 47856 Int'l Des: 2021-020 Owner: ZLZB Country: CN Constellation: yaogan operational
LEO

現在のビュー

3D地球を読み込み中...

Yaogan 31 hao 04 zu 02 xingについて

説明を読み込み中...

次回通過

Passes for default location (London). Set your location on the main map for personalized predictions.

高度履歴

Loading altitude history...

軌道要素

1 47856U 21020C 26151.21363319 -.00000018 00000-0 11144-3 0 9992
2 47856 63.4057 302.4013 0173182 0.5387 359.5795 13.45447129256124
Epoch: May 31, 2026 • Age: 4 hours

現在のステータス

高度 1031.4 km
速度 7.37 km/s
衛星直下点 51.76°N, 42.53°W
打ち上げ日 Mar 13, 2021
運用期間 5.2 years
タイプ military

技術仕様

分類 Payload
質量 500.00 kg
乾燥質量 500.00 kg
総質量 500.00 kg
長さ 0.50 m
直径 0.50 m
スパン 1.00 m
形状 Box + 2 Pan
製造者 DFHZ
フェーズステータス In Orbit
所有者/国 ZLZB/CN

Most Searched